Weather History for Cullman Regional Airport, LA

Change the Weather History Date:

Thursday, September 19, 2013

  Actual Average Record
Temperature  
Mean Temperature 74 °F -  
Max Temperature 84 °F - - ()
Min Temperature 64 °F - - ()
Cooling Degree Days 9    
Growing Degree Days 24 (Base 50)    
Moisture  
Dew Point 63 °F    
Average Humidity 72    
Maximum Humidity 94    
Minimum Humidity 48    
Precipitation  
Precipitation 0.00 in - - ()
Sea Level Pressure  
Sea Level Pressure 30.14 in    
Wind  
Wind Speed 5 mph (SE)    
Max Wind Speed 9 mph    
Max Gust Speed -    
Visibility 10 miles    
Events      
T = Trace of Precipitation, MM = Missing Value Source: NWS Daily Summary

Daily Weather History Graph

Daily Weather History Graph

Search for Another Location

Airport:

Trip Planner

Search our weather history database for the weather conditions in past years. The results will help you decide how hot, cold, wet, or windy it might be!

Date:

Astronomy

Sep. 19, 2013 Rise Set
Actual Time 6:33 AM CDT 6:48 PM CDT
Civil Twilight 6:08 AM CDT 7:13 PM CDT
Nautical Twilight 5:39 AM CDT 7:42 PM CDT
Astronomical Twilight 5:09 AM CDT 8:12 PM CDT
Moon 6:49 PM CDT (9/19) 6:40 AM CDT (9/19)
Length of Visible Light 13h 04m
Length of Day
12h 14m
Full, 100% of the Moon is Illuminated
Sep 19
Full
Sep 26
Last Quarter
Oct 4
New
Oct 11
First Quarter
Oct 18
Full

Hourly Weather History & Observations

Time (CDT) Temp. Heat Index Dew Point Humidity Pressure Visibility Wind Dir Wind Speed Gust Speed Precip Events Conditions
12:15 AM 68.7 °F - 64.8 °F 87% 30.16 in 7.0 mi SE 5.8 mph - N/A   Clear
12:35 AM 68.4 °F - 64.8 °F 88% 30.15 in 10.0 mi ESE 4.6 mph - N/A   Clear
12:55 AM 68.2 °F - 64.6 °F 88% 30.15 in 10.0 mi ESE 4.6 mph - N/A   Clear
1:15 AM 68.0 °F - 64.6 °F 89% 30.16 in 10.0 mi ESE 3.5 mph - N/A   Clear
1:35 AM 67.6 °F - 64.4 °F 89% 30.15 in 10.0 mi SE 5.8 mph - N/A   Clear
1:55 AM 67.5 °F - 64.2 °F 89% 30.15 in 10.0 mi SE 6.9 mph - N/A   Clear
2:15 AM 67.3 °F - 63.9 °F 89% 30.15 in 10.0 mi SE 5.8 mph - N/A   Clear
2:35 AM 67.1 °F - 63.7 °F 89% 30.15 in 10.0 mi ESE 5.8 mph - N/A   Clear
2:55 AM 66.9 °F - 63.5 °F 89% 30.14 in 10.0 mi ESE 4.6 mph - N/A   Clear
3:15 AM 66.4 °F - 63.5 °F 90% 30.15 in 10.0 mi ESE 4.6 mph - N/A   Clear
3:35 AM 66.2 °F - 63.5 °F 91% 30.15 in 10.0 mi SE 5.8 mph - N/A   Clear
3:55 AM 66.2 °F - 63.3 °F 90% 30.15 in 10.0 mi ESE 5.8 mph - N/A   Clear
4:15 AM 65.8 °F - 63.0 °F 90% 30.15 in 10.0 mi ESE 4.6 mph - N/A   Clear
4:35 AM 65.5 °F - 63.0 °F 92% 30.15 in 10.0 mi SE 4.6 mph - N/A   Clear
4:55 AM 65.3 °F - 62.8 °F 92% 30.15 in 7.0 mi ESE 5.8 mph - N/A   Clear
5:15 AM 65.1 °F - 62.8 °F 92% 30.16 in 7.0 mi ESE 3.5 mph - N/A   Clear
5:35 AM 64.8 °F - 62.6 °F 93% 30.16 in 7.0 mi ESE 4.6 mph - N/A   Clear
5:55 AM 64.4 °F - 62.6 °F 94% 30.16 in 7.0 mi ESE 5.8 mph - N/A   Clear
6:15 AM 64.4 °F - 62.4 °F 93% 30.17 in 7.0 mi ESE 5.8 mph - N/A   Clear
6:35 AM 64.4 °F - 62.1 °F 92% 30.17 in 10.0 mi ESE 4.6 mph - N/A   Clear
6:55 AM 64.4 °F - 61.9 °F 92% 30.18 in 7.0 mi ESE 3.5 mph - N/A   Clear
7:15 AM 64.4 °F - 61.9 °F 92% 30.18 in 7.0 mi ESE 3.5 mph - N/A   Clear
7:35 AM 64.9 °F - 61.9 °F 90% 30.19 in 10.0 mi ESE 4.6 mph - N/A   Clear
7:55 AM 66.0 °F - 61.9 °F 86% 30.19 in 10.0 mi ESE 5.8 mph - N/A   Clear
8:15 AM 67.3 °F - 62.2 °F 84% 30.19 in 10.0 mi ESE 3.5 mph - N/A   Clear
8:35 AM 68.7 °F - 62.2 °F 80% 30.19 in 10.0 mi SE 3.5 mph - N/A   Clear
8:55 AM 69.8 °F - 62.6 °F 78% 30.19 in 10.0 mi SSE 4.6 mph - N/A   Clear
9:15 AM 71.1 °F - 62.4 °F 74% 30.20 in 10.0 mi SSE 8.1 mph - N/A   Clear
9:35 AM 72.0 °F - 62.1 °F 71% 30.20 in 10.0 mi SSE 9.2 mph - N/A   Clear
9:55 AM 73.4 °F - 61.9 °F 67% 30.21 in 10.0 mi SSE 6.9 mph - N/A   Clear
10:15 AM 74.3 °F - 62.2 °F 66% 30.21 in 10.0 mi SSE 6.9 mph - N/A   Clear
10:35 AM 75.2 °F - 62.2 °F 64% 30.21 in 10.0 mi South 6.9 mph - N/A   Clear
10:55 AM 76.5 °F - 62.8 °F 62% 30.20 in 10.0 mi SE 6.9 mph - N/A   Clear
11:15 AM 77.4 °F - 62.8 °F 61% 30.20 in 10.0 mi South 6.9 mph - N/A   Clear
11:35 AM 78.3 °F - 63.1 °F 60% 30.19 in 10.0 mi Calm Calm - N/A   Clear
11:55 AM 79.2 °F - 63.3 °F 58% 30.19 in 10.0 mi ESE 4.6 mph - N/A   Clear
12:15 PM 80.2 °F 81.6 °F 63.3 °F 56% 30.18 in 10.0 mi ESE 4.6 mph - N/A   Clear
12:35 PM 80.8 °F 82.1 °F 63.1 °F 55% 30.17 in 10.0 mi ESE 3.5 mph - N/A   Clear
12:55 PM 81.7 °F 82.9 °F 62.8 °F 53% 30.17 in 10.0 mi SE 3.5 mph - N/A   Clear
1:15 PM 82.4 °F 83.5 °F 63.1 °F 52% 30.16 in 10.0 mi Calm Calm - N/A   Scattered Clouds
1:35 PM 83.1 °F 84.4 °F 63.9 °F 52% 30.15 in 10.0 mi SSE 4.6 mph - N/A   Mostly Cloudy
1:55 PM 82.6 °F 83.9 °F 63.7 °F 53% 30.15 in 10.0 mi SSE 5.8 mph - N/A   Scattered Clouds
2:15 PM 82.9 °F 84.2 °F 63.9 °F 52% 30.14 in 10.0 mi SSE 5.8 mph - N/A   Scattered Clouds
2:35 PM 82.4 °F 83.7 °F 63.9 °F 53% 30.13 in 10.0 mi East 3.5 mph - N/A   Clear
2:55 PM 82.0 °F 83.4 °F 64.0 °F 54% 30.13 in 10.0 mi NE 5.8 mph - N/A   Clear
3:15 PM 84.2 °F 85.6 °F 64.2 °F 51% 30.12 in 10.0 mi ESE 5.8 mph - N/A   Scattered Clouds
3:35 PM 83.7 °F 84.9 °F 63.7 °F 51% 30.11 in 10.0 mi ENE 5.8 mph - N/A   Scattered Clouds
3:55 PM 83.1 °F 84.2 °F 63.1 °F 51% 30.11 in 10.0 mi NNE 4.6 mph - N/A   Scattered Clouds
4:15 PM 84.2 °F 85.2 °F 63.3 °F 49% 30.11 in 10.0 mi SE 4.6 mph - N/A   Scattered Clouds
4:35 PM 84.2 °F 85.0 °F 62.8 °F 48% 30.11 in 10.0 mi SE 3.5 mph - N/A   Clear
4:55 PM 83.7 °F 84.9 °F 63.7 °F 51% 30.10 in 10.0 mi East 5.8 mph - N/A   Clear
5:15 PM 83.1 °F 84.4 °F 63.9 °F 52% 30.10 in 10.0 mi ESE 5.8 mph - N/A   Clear
5:35 PM 82.4 °F 83.7 °F 63.9 °F 53% 30.10 in 10.0 mi ESE 4.6 mph - N/A   Clear
5:55 PM 81.7 °F 83.2 °F 64.0 °F 55% 30.10 in 10.0 mi ESE 3.5 mph - N/A   Clear
6:15 PM 80.4 °F 82.2 °F 64.8 °F 59% 30.10 in 10.0 mi East 3.5 mph - N/A   Clear
6:35 PM 78.8 °F - 65.3 °F 63% 30.09 in 10.0 mi Calm Calm - N/A   Clear
6:55 PM 77.2 °F - 65.5 °F 67% 30.09 in 10.0 mi Calm Calm - N/A   Clear
7:15 PM 75.7 °F - 65.8 °F 71% 30.10 in 10.0 mi Calm Calm - N/A   Clear
7:35 PM 75.4 °F - 65.1 °F 70% 30.10 in 10.0 mi Calm Calm - N/A   Clear
7:55 PM 75.0 °F - 64.9 °F 71% 30.10 in 10.0 mi SE 3.5 mph - N/A   Clear
8:15 PM 74.5 °F - 64.6 °F 71% 30.10 in 10.0 mi SE 3.5 mph - N/A   Clear
8:35 PM 74.5 °F - 64.0 °F 70% 30.10 in 10.0 mi SE 3.5 mph - N/A   Clear
8:55 PM 74.3 °F - 63.7 °F 69% 30.10 in 10.0 mi SE 4.6 mph - N/A   Clear
9:15 PM 73.9 °F - 63.5 °F 70% 30.10 in 10.0 mi SE 3.5 mph - N/A   Clear
9:35 PM 73.4 °F - 63.5 °F 71% 30.10 in 10.0 mi ESE 3.5 mph - N/A   Clear
9:55 PM 72.7 °F - 63.7 °F 73% 30.10 in 10.0 mi SE 3.5 mph - N/A   Clear
10:15 PM 72.9 °F - 63.3 °F 72% 30.10 in 10.0 mi SE 3.5 mph - N/A   Clear
10:35 PM 72.7 °F - 63.3 °F 72% 30.10 in 10.0 mi Calm Calm - N/A   Clear
10:55 PM 71.6 °F - 63.0 °F 74% 30.11 in 10.0 mi Calm Calm - N/A   Clear
11:15 PM 69.3 °F - 63.0 °F 80% 30.11 in 10.0 mi SE 4.6 mph - N/A   Clear
11:35 PM 72.1 °F - 62.8 °F 72% 30.11 in 10.0 mi SE 3.5 mph - N/A   Clear
11:55 PM 71.6 °F - 62.8 °F 74% 30.10 in 10.0 mi ESE 3.5 mph - N/A   Clear